Location: Cheyres
(46.8153°N, 6.7877°E)
Time: 04:29:12
(UTC+00:00)

Cosmos 1898 Rocket - Pass Details

Date: 11 May 2021
Orbit: 753 x 784 km, 74.0° (Epoch: 18 June)

Event Time Altitude Azimuth Distance (km) Brightness Sun altitude
Exits shadow 21:07:16 27° 116° (ESE) 1,467 4.5 -17.6°
Maximum altitude 21:08:06 28° 100° (E) 1,428 4.5 -17.7°
Drops below altitude 10° 21:12:34 10° 42° (NE) 2,345 6.2 -18.1°
Sets 21:15:15 0° 32° (NNE) 3,281 7.1 -18.4°
